Home   Weather   Luanda   Past weeks
Flag for Angola

Past Weather in Luanda, Angola — Yesterday and Last 2 Weeks

Now
77 °F

Passing clouds.


Feels Like: 78 °F
Forecast: 82 / 75 °F
Wind: 10 mph from South

Location: Luanda Airport

Current Time: Oct 21, 2019 at 9:39:58 pm

Latest Report: Oct 21, 2019 at 9:00 pm


Visibility: N/A

Pressure: 29.86 "Hg

Humidity: 83%

Dew Point: 72 °F

Location of LuandaLocation

Past Weather in Luanda — Graph

°F

Luanda Temperature Yesterday

Maximum temperature yesterday: 84 °F (at 12:00 pm)
Minimum temperature yesterday: 73 °F (at 8:00 am)
Average temperature yesterday: 77 °F

High & Low Weather Summary for the Past Weeks

 TemperatureHumidityPressure
High86 °F (Oct 21, 2:00 pm)94% (Oct 13, 10:00 pm)29.95 "Hg (Oct 13, 10:00 pm)
Low72 °F (Oct 14, 12:00 am)55% (Oct 8, 10:00 am)29.74 "Hg (Oct 8, 3:00 pm)
Average78 °F79%29.85 "Hg
* Reported Oct 6 8:00 pm — Oct 21 8:00 pm, Luanda. Weather by CustomWeather, © 2019

Note: Actual official high and low records may vary slightly from our data, if they occured in-between our weather recording intervals... More about our weather records

Advertising

Luanda Weather History for the Previous 24 Hours

Scroll right to see more
 ConditionsComfort  
Time TempWeatherWind HumidityBarometerVisibility
8:00 pm
Mon, Oct 21
79 °FPassing clouds.9 mph79%29.83 "HgN/A
7:00 pm79 °FPassing clouds.9 mph84%29.80 "HgN/A
6:00 pm81 °FScattered clouds.8 mph74%29.77 "HgN/A
5:00 pm84 °FScattered clouds.10 mph62%29.77 "HgN/A
4:00 pm84 °FPassing clouds.10 mph66%29.80 "HgN/A
3:00 pm86 °FScattered clouds.13 mph62%29.80 "HgN/A
2:00 pm86 °FScattered clouds.12 mph62%29.80 "HgN/A
1:00 pm84 °FScattered clouds.13 mph66%29.86 "HgN/A
12:00 pm84 °FPartly sunny.9 mph66%29.89 "HgN/A
11:00 am84 °FPartly sunny.6 mph66%29.92 "HgN/A
10:00 am82 °FPartly sunny.7 mph70%29.92 "HgN/A
9:00 am79 °FPartly sunny.8 mph79%29.95 "HgN/A
8:00 am77 °FPartly sunny.7 mph83%29.92 "Hg6 mi
7:00 am75 °FPartly sunny.3 mph94%29.92 "Hg4 mi
6:00 am75 °FDrizzle. Broken clouds.3 mph89%29.89 "Hg3 mi
5:00 am75 °FDrizzle. Overcast.3 mph89%29.89 "Hg4 mi
3:00 am77 °FPassing clouds.5 mph83%29.86 "Hg6 mi
2:00 am77 °FPassing clouds.6 mph83%29.86 "Hg6 mi
1:00 am77 °FPassing clouds.6 mph83%29.86 "Hg6 mi
12:00 am77 °FPassing clouds.6 mph83%29.89 "Hg6 mi
11:00 pm
Sun, Oct 20
75 °FPassing clouds.6 mph89%29.89 "Hg6 mi
10:00 pm77 °FPassing clouds.8 mph83%29.89 "Hg6 mi
9:00 pm77 °FPassing clouds.9 mph83%29.86 "Hg6 mi
Weather by CustomWeather, © 2019

See weather overview